Atkins, VA

7:19 AM EST on February 06, 2016 (GMT -0500)
Mountain Empire

Weather History for KMKJ - March, 2014

Change the Weather History Date:

Wednesday, March 19, 2014

  Actual Average (KGEV) Record (KGEV)
Temperature  
Mean Temperature 54 °F -  
Max Temperature 64 °F 56 °F 74 °F (1968)
Min Temperature 44 °F 32 °F 11 °F (1967)
Degree Days  
Heating Degree Days 11    
Growing Degree Days 4 (Base 50)    
Moisture  
Dew Point 41 °F    
Average Humidity 60    
Maximum Humidity 100    
Minimum Humidity 35    
Precipitation  
Precipitation 0.00 in - - ()
Sea Level Pressure  
Sea Level Pressure 30.01 in    
Wind  
Wind Speed 12 mph (NE)    
Max Wind Speed 29 mph    
Max Gust Speed 39 mph    
Visibility 10 miles    
Events      
Averages and records for this station are not official NWS values.
T = Trace of Precipitation, MM = Missing Value Source: NWS Daily Summary

Daily Weather History Graph

Daily Weather History Graph

Search for Another Location

Airport or City:

Trip Planner

Search our weather history database for the weather conditions in past years. The results will help you decide how hot, cold, wet, or windy it might be!

Date:

Astronomy

Mar. 19, 2014 Rise Set
Actual Time 7:30 AM EDT 7:36 PM EDT
Civil Twilight 7:04 AM EDT 8:02 PM EDT
Nautical Twilight 6:34 AM EDT 8:32 PM EDT
Astronomical Twilight 6:03 AM EDT 9:03 PM EDT
Moon 10:48 PM EDT (3/19) 8:59 AM EDT (3/19)
Length of Visible Light 12h 57m
Length of Day
12h 05m
Waning Gibbous, 91% of the Moon is Illuminated
Mar 19
Waning Gibbous
Mar 23
Last Quarter
Mar 30
New
Apr 7
First Quarter
Apr 15
Full

Hourly Weather History & Observations

Time (EDT) Temp. Windchill Dew Point Humidity Pressure Visibility Wind Dir Wind Speed Gust Speed Precip Events Conditions
12:15 AM - - - N/A% 30.09 in 7.0 mi East 12.7 mph 18.4 mph N/A   Overcast
12:35 AM - - - N/A% 30.10 in 7.0 mi East 12.7 mph 17.3 mph N/A   Overcast
12:55 AM - - - N/A% 30.10 in 10.0 mi East 12.7 mph 17.3 mph N/A   Overcast
1:15 AM - - - N/A% 30.10 in 10.0 mi East 12.7 mph - N/A   Overcast
1:35 AM - - - N/A% 30.11 in 10.0 mi East 11.5 mph - N/A   Overcast
1:55 AM - - - N/A% 30.11 in 10.0 mi East 9.2 mph - N/A   Overcast
2:15 AM - - - N/A% 30.12 in 10.0 mi ENE 9.2 mph - N/A   Overcast
2:35 AM - - - N/A% 30.12 in 10.0 mi NE 10.4 mph - N/A   Overcast
2:55 AM - - - N/A% 30.11 in 10.0 mi East 10.4 mph - N/A   Overcast
3:15 AM - - - N/A% 30.10 in 10.0 mi NE 10.4 mph - N/A   Overcast
3:35 AM - - - N/A% 30.10 in 10.0 mi NE 8.1 mph - N/A   Overcast
3:55 AM - - - N/A% 30.09 in 10.0 mi ENE 5.8 mph - N/A   Overcast
4:15 AM - - - N/A% 30.08 in 10.0 mi NE 10.4 mph - N/A   Overcast
4:35 AM - - - N/A% 30.08 in 10.0 mi ENE 5.8 mph - N/A   Overcast
4:55 AM - - - N/A% 30.08 in 10.0 mi ENE 4.6 mph - N/A   Overcast
5:15 AM - - - N/A% 30.08 in 10.0 mi Calm Calm - N/A   Overcast
5:35 AM - - - N/A% 30.08 in 10.0 mi NE 9.2 mph - N/A   Overcast
5:55 AM - - - N/A% 30.07 in 10.0 mi NE 8.1 mph 18.4 mph N/A   Overcast
6:15 AM - - - N/A% 30.07 in 10.0 mi ENE 5.8 mph - N/A   Overcast
6:35 AM - - - N/A% 30.08 in 10.0 mi NE 5.8 mph - N/A   Overcast
6:55 AM - - - N/A% 30.08 in 10.0 mi NE 8.1 mph - N/A   Overcast
7:15 AM - - - N/A% 30.08 in 7.0 mi NE 8.1 mph - N/A   Overcast
7:35 AM - - - N/A% 30.07 in 7.0 mi NE 9.2 mph - N/A   Overcast
7:55 AM - - - N/A% 30.07 in 7.0 mi NNE 11.5 mph - N/A   Overcast
8:15 AM - - - N/A% 30.07 in 5.0 mi NNE 11.5 mph - N/A   Haze
8:35 AM - - - N/A% 30.07 in 7.0 mi NE 9.2 mph - N/A   Overcast
8:55 AM - - - N/A% 30.07 in 10.0 mi NE 6.9 mph - N/A   Overcast
9:15 AM - - - N/A% 30.06 in 10.0 mi ENE 9.2 mph - N/A   Overcast
9:35 AM - - - N/A% 30.06 in 10.0 mi NE 9.2 mph - N/A   Overcast
9:55 AM - - - N/A% 30.06 in 10.0 mi NE 8.1 mph - N/A   Overcast
10:15 AM 44.1 °F 41.5 °F 44.1 °F 100% 30.06 in 10.0 mi NE 4.6 mph - N/A   Mostly Cloudy
10:35 AM 47.8 °F - 44.6 °F 89% 30.05 in 10.0 mi NE 9.2 mph - N/A   Mostly Cloudy
10:55 AM 50.0 °F - 45.0 °F 83% 30.04 in 10.0 mi ESE 8.1 mph - N/A   Scattered Clouds
11:15 AM 51.4 °F - 42.8 °F 72% 30.04 in 10.0 mi SE 8.1 mph - N/A   Clear
11:35 AM 53.1 °F - 43.5 °F 70% 30.03 in 10.0 mi SE 8.1 mph - N/A   Scattered Clouds
11:55 AM 53.6 °F - 42.6 °F 66% 30.01 in 10.0 mi SSE 5.8 mph - N/A   Scattered Clouds
12:15 PM 53.8 °F - 42.6 °F 66% 30.00 in 10.0 mi South 12.7 mph 19.6 mph N/A   Clear
12:35 PM 54.5 °F - 42.3 °F 63% 29.99 in 10.0 mi SSE 10.4 mph 19.6 mph N/A   Clear
12:55 PM 55.9 °F - 43.0 °F 62% 29.97 in 10.0 mi SSE 9.2 mph - N/A   Clear
1:15 PM 55.6 °F - 42.1 °F 60% 29.98 in 10.0 mi SSE 5.8 mph 17.3 mph N/A   Clear
1:35 PM 57.7 °F - 42.8 °F 57% 29.97 in 10.0 mi South 4.6 mph - N/A   Clear
1:55 PM 59.2 °F - 43.2 °F 55% 29.96 in 10.0 mi South 6.9 mph - N/A   Clear
2:15 PM 60.8 °F - 43.2 °F 52% 29.93 in 10.0 mi ESE 8.1 mph - N/A   Clear
2:35 PM 62.6 °F - 42.4 °F 48% 29.93 in 10.0 mi SW 8.1 mph - N/A   Scattered Clouds
2:55 PM 62.4 °F - 43.5 °F 50% 29.93 in 10.0 mi North 4.6 mph - N/A   Clear
3:15 PM 64.6 °F - 40.6 °F 42% 29.91 in 10.0 mi West 12.7 mph 18.4 mph N/A   Clear
3:35 PM 64.6 °F - 39.6 °F 40% 29.91 in 10.0 mi WSW 15.0 mph 21.9 mph N/A   Clear
3:55 PM 64.4 °F - 36.3 °F 35% 29.90 in 10.0 mi West 18.4 mph 25.3 mph N/A   Scattered Clouds
4:15 PM 63.9 °F - 37.6 °F 38% 29.90 in 10.0 mi WSW 19.6 mph 31.1 mph N/A   Clear
4:35 PM 63.5 °F - 39.0 °F 41% 29.89 in 10.0 mi West 24.2 mph 31.1 mph N/A   Scattered Clouds
4:55 PM 61.9 °F - 39.2 °F 43% 29.89 in 10.0 mi WSW 25.3 mph 35.7 mph N/A   Clear
5:15 PM 61.0 °F - 39.6 °F 45% 29.90 in 10.0 mi WSW 18.4 mph 29.9 mph N/A   Clear
5:35 PM 61.2 °F - 40.1 °F 46% 29.89 in 10.0 mi West 28.8 mph 38.0 mph N/A   Clear
5:55 PM 59.9 °F - 39.9 °F 48% 29.89 in 10.0 mi West 21.9 mph 31.1 mph N/A   Scattered Clouds
6:15 PM 59.2 °F - 39.2 °F 48% 29.90 in 10.0 mi WSW 26.5 mph 34.5 mph N/A   Scattered Clouds
6:35 PM 57.9 °F - 38.7 °F 49% 29.90 in 10.0 mi West 20.7 mph 38.0 mph N/A   Clear
6:55 PM 56.5 °F - 39.6 °F 53% 29.91 in 10.0 mi West 23.0 mph 32.2 mph N/A   Scattered Clouds
7:15 PM 55.6 °F - 38.8 °F 53% 29.91 in 10.0 mi West 21.9 mph 39.1 mph N/A   Scattered Clouds
7:35 PM 54.3 °F - 39.4 °F 57% 29.93 in 10.0 mi West 18.4 mph 35.7 mph N/A   Scattered Clouds
7:55 PM 52.7 °F - 40.1 °F 62% 29.94 in 10.0 mi West 17.3 mph 28.8 mph N/A   Clear
8:15 PM 52.3 °F - 39.7 °F 62% 29.94 in 10.0 mi West 23.0 mph 27.6 mph N/A   Mostly Cloudy
8:35 PM 51.8 °F - 38.1 °F 60% 29.95 in 10.0 mi West 23.0 mph 29.9 mph N/A   Mostly Cloudy
8:55 PM 51.3 °F - 37.0 °F 58% 29.95 in 10.0 mi West 20.7 mph 31.1 mph N/A   Mostly Cloudy
9:15 PM 50.5 °F - 37.4 °F 61% 29.96 in 10.0 mi WSW 19.6 mph 31.1 mph N/A   Mostly Cloudy
9:35 PM 50.0 °F - 36.9 °F 61% 29.96 in 10.0 mi WSW 15.0 mph 25.3 mph N/A   Scattered Clouds
9:55 PM 49.1 °F - 39.0 °F 68% 29.95 in 10.0 mi West 20.7 mph 26.5 mph N/A   Clear
10:15 PM 48.9 °F - 39.6 °F 70% 29.96 in 10.0 mi West 18.4 mph 29.9 mph N/A   Clear
10:35 PM 48.4 °F - 39.4 °F 71% 29.96 in 10.0 mi West 19.6 mph 31.1 mph N/A   Clear
10:55 PM 47.7 °F - 39.7 °F 74% 29.95 in 10.0 mi West 21.9 mph 27.6 mph N/A   Clear
11:15 PM 47.3 °F - 40.1 °F 76% 29.95 in 10.0 mi West 20.7 mph 29.9 mph N/A   Scattered Clouds
11:35 PM 46.9 °F - 40.3 °F 78% 29.96 in 10.0 mi West 19.6 mph 25.3 mph N/A   Scattered Clouds
11:55 PM 46.8 °F - 40.5 °F 79% 29.95 in 10.0 mi West 18.4 mph 25.3 mph N/A   Scattered Clouds